Location: Unspecified
(52.4808°N, 1.9020°W)
Time: 07:50:54
(UTC+02:00)

ISS - Visible Passes

Search period start: 09 May 2021 00:00
Search period end: 19 May 2021 00:00
Orbit: 418 x 421 km, 51.6° (Epoch: 08 May)

Date Brightness Start Highest point End Pass type
(mag) Time Alt. Az. Time Alt. Az. Time Alt. Az.
09 May -3.8 03:36:22 53° SSW 03:36:53 63° SSE 03:40:14 10° E visible
09 May -3.8 05:10:14 10° W 05:13:37 75° S 05:17:00 10° E visible
10 May -2.9 02:50:23 38° ESE 02:50:23 38° ESE 02:52:48 10° E visible
10 May -3.9 04:23:19 14° W 04:26:12 79° S 04:29:35 10° E visible
11 May -1.6 02:04:21 17° E 02:04:21 17° E 02:05:20 10° E visible
11 May -3.9 03:37:16 30° WSW 03:38:46 78° S 03:42:10 10° E visible
11 May -3.7 05:12:10 10° W 05:15:30 56° SSW 05:18:50 10° ESE visible
12 May -3.9 02:51:12 70° SSW 02:51:21 72° S 02:54:44 10° E visible
12 May -3.8 04:24:44 10° W 04:28:06 67° SSW 04:31:29 10° ESE visible
13 May -2.9 02:05:02 38° E 02:05:02 38° E 02:07:18 10° E visible
13 May -3.9 03:37:57 15° W 03:40:41 75° S 03:44:04 10° ESE visible
13 May -3.1 05:14:10 10° W 05:17:17 34° SSW 05:20:23 10° SE visible
14 May -1.9 01:18:38 20° E 01:18:38 20° E 01:19:51 10° E visible
14 May -3.9 02:51:31 26° W 02:53:16 79° S 02:56:39 10° E visible
14 May -3.5 04:26:41 10° W 04:29:57 45° SSW 04:33:11 10° SE visible
14 May -1.8 22:51:55 10° SSE 22:53:03 11° SE 22:54:12 10° ESE visible
15 May -3.4 00:26:00 10° SW 00:29:12 40° SSE 00:32:23 10° E visible
15 May -3.9 02:02:27 10° W 02:05:50 78° S 02:09:13 10° E visible
15 May -3.8 03:39:14 10° W 03:42:33 56° SSW 03:45:53 10° ESE visible
15 May -2.3 05:16:28 10° W 05:18:54 19° SW 05:21:21 10° S visible
15 May -3.0 23:38:51 10° SW 23:41:51 30° SSE 23:44:52 10° E visible
16 May -3.9 01:15:02 10° WSW 01:18:24 72° S 01:21:47 10° E visible
16 May -3.9 02:51:48 10° W 02:55:09 67° S 02:58:31 10° ESE visible
16 May -2.7 04:28:46 10° W 04:31:38 25° SSW 04:34:30 10° SSE visible
16 May -2.5 22:51:51 10° SSW 22:54:33 23° SSE 22:57:17 10° E visible
17 May -3.8 00:27:39 10° WSW 00:30:59 63° SSE 00:34:20 10° E visible
17 May -3.9 02:04:21 10° W 02:07:44 75° S 02:11:06 10° ESE visible
17 May -3.2 03:41:13 10° W 03:44:19 34° SSW 03:47:25 10° SE visible
17 May -3.6 23:40:18 10° WSW 23:43:35 51° SSE 23:46:53 10° E visible
18 May -3.9 01:16:55 10° W 01:20:18 79° S 01:22:56 16° E visible
18 May -2.7 02:53:43 10° W 02:55:49 31° WSW 02:55:49 31° WSW visible
18 May -3.3 22:53:02 10° SW 22:56:13 40° SSE 22:59:25 10° E visible
